When you browse on this site, cookies collect data to enhance your experience and personalize the content and advertising you see.
Visit our Privacy Policy to learn more. By continuing to use the site, you agree to this use of cookies and data.
  • en Suisse
  • Liste des pays
  • À 7 jours
  • Température de l'eau
  • Carte météo
  • Widgets météo
  • user-avatar
    Se connecter

    Météo par heure à Zibarovka

    Ce jour, 26 Août, Lundi

    Heure Température Précipitation Vent Pression Humidité
    00:00 +13°C° 0 mm 3 m/s 753 mmHg 87%
    01:00 +12°C° 0 mm 3 m/s 753 mmHg 88%
    02:00 +13°C° 0 mm 2 m/s 754 mmHg 89%
    03:00 +12°C° 0 mm 1 m/s 754 mmHg 90%
    04:00 +12°C° 0 mm 1 m/s 754 mmHg 90%
    05:00 +12°C° 0 mm 1 m/s 754 mmHg 91%
    06:00 +11°C° 0 mm 1 m/s 754 mmHg 91%
    07:00 +13°C° 0 mm 1 m/s 754 mmHg 85%
    08:00 +14°C° 0 mm 1 m/s 755 mmHg 78%
    09:00 +16°C° 0 mm 1 m/s 755 mmHg 72%
    10:00 +18°C° 0 mm 1 m/s 755 mmHg 67%
    11:00 +20°C° 0 mm 1 m/s 754 mmHg 61%
    12:00 +19°C° 0 mm 0 m/s 754 mmHg 56%
    13:00 +21°C° 0 mm 1 m/s 754 mmHg 54%
    14:00 +22°C° 0 mm 1 m/s 754 mmHg 52%
    15:00 +22°C° 0 mm 1 m/s 754 mmHg 49%
    16:00 +22°C° 0 mm 1 m/s 753 mmHg 52%
    17:00 +22°C° 0 mm 1 m/s 753 mmHg 56%
    18:00 +22°C° 0 mm 1 m/s 752 mmHg 59%
    19:00 +20°C° 0 mm 1 m/s 752 mmHg 63%
    20:00 +19°C° 0 mm 1 m/s 752 mmHg 67%
    21:00 +16°C° 0 mm 1 m/s 752 mmHg 72%
    22:00 +16°C° 0 mm 1 m/s 751 mmHg 73%
    23:00 +16°C° 0 mm 2 m/s 751 mmHg 74%

    Demain, 27 Août, Mardi

    Heure Température Précipitation Vent Pression Humidité
    00:00 +16°C° 0 mm 2 m/s 750 mmHg 75%
    01:00 +14°C° 0 mm 3 m/s 750 mmHg 76%
    02:00 +14°C° 0 mm 3 m/s 750 mmHg 76%
    03:00 +14°C° 0 mm 3 m/s 749 mmHg 77%
    04:00 +14°C° 0 mm 4 m/s 749 mmHg 77%
    05:00 +14°C° 0 mm 4 m/s 748 mmHg 78%
    06:00 +14°C° 0 mm 4 m/s 748 mmHg 79%
    07:00 +17°C° 0 mm 4 m/s 748 mmHg 78%
    08:00 +17°C° 0 mm 5 m/s 748 mmHg 76%
    09:00 +19°C° 0 mm 5 m/s 747 mmHg 75%
    10:00 +20°C° 0.5 mm 5 m/s 747 mmHg 72%
    11:00 +21°C° 0.5 mm 5 m/s 747 mmHg 70%
    12:00 +21°C° 0.5 mm 5 m/s 747 mmHg 67%
    13:00 +22°C° 0.2 mm 6 m/s 747 mmHg 66%
    14:00 +22°C° 0.2 mm 6 m/s 747 mmHg 64%
    15:00 +22°C° 0.2 mm 6 m/s 747 mmHg 62%
    16:00 +22°C° 0.1 mm 5 m/s 747 mmHg 63%
    17:00 +21°C° 0.1 mm 4 m/s 747 mmHg 64%
    18:00 +20°C° 0.1 mm 4 m/s 746 mmHg 65%
    19:00 +19°C° 0 mm 4 m/s 747 mmHg 69%
    20:00 +18°C° 0 mm 4 m/s 747 mmHg 72%
    21:00 +16°C° 0 mm 3 m/s 747 mmHg 75%
    22:00 +16°C° 0 mm 3 m/s 748 mmHg 78%
    23:00 +14°C° 0 mm 3 m/s 748 mmHg 81%

    Après-demain, 28 Août, Mercredi

    Heure Température Précipitation Vent Pression Humidité
    00:00 +13°C° 0 mm 3 m/s 748 mmHg 84%
    01:00 +12°C° 0 mm 3 m/s 748 mmHg 85%
    02:00 +11°C° 0 mm 3 m/s 749 mmHg 86%
    03:00 +11°C° 0 mm 3 m/s 749 mmHg 88%
    04:00 +10°C° 0 mm 4 m/s 749 mmHg 88%
    05:00 +10°C° 0 mm 4 m/s 749 mmHg 88%
    06:00 +10°C° 0 mm 4 m/s 750 mmHg 88%
    07:00 +11°C° 0 mm 4 m/s 750 mmHg 80%
    08:00 +12°C° 0 mm 5 m/s 750 mmHg 72%
    09:00 +13°C° 0 mm 5 m/s 750 mmHg 64%
    10:00 +13°C° 0 mm 5 m/s 750 mmHg 61%
    11:00 +14°C° 0 mm 6 m/s 750 mmHg 57%
    12:00 +15°C° 0 mm 6 m/s 750 mmHg 53%
    13:00 +15°C° 0 mm 6 m/s 750 mmHg 51%
    14:00 +16°C° 0 mm 6 m/s 750 mmHg 50%
    15:00 +16°C° 0 mm 6 m/s 750 mmHg 48%
    16:00 +15°C° 0 mm 6 m/s 751 mmHg 50%
    17:00 +14°C° 0 mm 5 m/s 751 mmHg 53%
    18:00 +14°C° 0 mm 5 m/s 751 mmHg 56%
    19:00 +12°C° 0 mm 4 m/s 751 mmHg 61%
    20:00 +11°C° 0 mm 3 m/s 752 mmHg 65%
    21:00 +10°C° 0 mm 3 m/s 752 mmHg 70%
    22:00 +9°C° 0 mm 3 m/s 752 mmHg 72%
    23:00 +9°C° 0 mm 3 m/s 752 mmHg 75%

    29 Août, Jeudi

    Heure Température Précipitation Vent Pression Humidité
    00:00 +8°C° 0 mm 2 m/s 752 mmHg 78%
    01:00 +8°C° 0 mm 2 m/s 753 mmHg 80%
    02:00 +8°C° 0 mm 2 m/s 753 mmHg 82%
    03:00 +7°C° 0 mm 2 m/s 753 mmHg 84%
    04:00 +7°C° 0 mm 2 m/s 753 mmHg 85%
    05:00 +7°C° 0 mm 2 m/s 753 mmHg 87%
    06:00 +7°C° 0 mm 2 m/s 753 mmHg 88%
    07:00 +8°C° 0 mm 2 m/s 753 mmHg 81%
    08:00 +10°C° 0 mm 3 m/s 753 mmHg 73%
    09:00 +12°C° 0 mm 3 m/s 753 mmHg 66%
    10:00 +13°C° 0 mm 3 m/s 753 mmHg 60%
    11:00 +14°C° 0 mm 3 m/s 753 mmHg 54%
    12:00 +17°C° 0 mm 3 m/s 753 mmHg 48%
    13:00 +17°C° 0 mm 3 m/s 753 mmHg 48%
    14:00 +18°C° 0 mm 3 m/s 752 mmHg 48%
    15:00 +18°C° 0 mm 3 m/s 752 mmHg 49%
    16:00 +18°C° 0 mm 3 m/s 752 mmHg 54%
    17:00 +18°C° 0 mm 2 m/s 752 mmHg 59%
    18:00 +17°C° 0 mm 2 m/s 751 mmHg 64%
    19:00 +16°C° 0 mm 2 m/s 751 mmHg 68%
    20:00 +15°C° 0 mm 1 m/s 751 mmHg 73%
    21:00 +14°C° 0 mm 1 m/s 751 mmHg 78%
    22:00 +13°C° 0 mm 1 m/s 751 mmHg 80%
    23:00 +13°C° 0 mm 2 m/s 751 mmHg 81%

    30 Août, Vendredi

    Heure Température Précipitation Vent Pression Humidité
    00:00 +13°C° 0 mm 2 m/s 750 mmHg 83%
    01:00 +12°C° 0 mm 3 m/s 750 mmHg 84%
    02:00 +11°C° 0 mm 3 m/s 750 mmHg 85%
    03:00 +11°C° 0 mm 3 m/s 750 mmHg 86%
    04:00 +11°C° 0 mm 3 m/s 750 mmHg 86%
    05:00 +11°C° 0 mm 3 m/s 749 mmHg 87%
    06:00 +11°C° 0 mm 3 m/s 749 mmHg 88%
    07:00 +12°C° 0 mm 4 m/s 749 mmHg 82%
    08:00 +14°C° 0 mm 5 m/s 749 mmHg 75%
    09:00 +16°C° 0 mm 5 m/s 749 mmHg 69%
    10:00 +17°C° 0 mm 5 m/s 749 mmHg 65%
    11:00 +20°C° 0 mm 6 m/s 749 mmHg 61%
    12:00 +21°C° 0 mm 6 m/s 749 mmHg 57%
    13:00 +21°C° 0.1 mm 5 m/s 749 mmHg 58%
    14:00 +21°C° 0.1 mm 5 m/s 749 mmHg 60%
    15:00 +21°C° 0.1 mm 5 m/s 749 mmHg 61%
    16:00 +20°C° 0.3 mm 4 m/s 749 mmHg 66%
    17:00 +19°C° 0.3 mm 4 m/s 749 mmHg 71%
    18:00 +18°C° 0.3 mm 3 m/s 749 mmHg 76%
    19:00 +17°C° 0 mm 3 m/s 749 mmHg 80%
    20:00 +14°C° 0 mm 3 m/s 749 mmHg 83%
    21:00 +14°C° 0 mm 2 m/s 749 mmHg 87%
    22:00 +13°C° 0 mm 2 m/s 750 mmHg 85%
    23:00 +13°C° 0 mm 2 m/s 750 mmHg 83%

    31 Août, Samedi

    Heure Température Précipitation Vent Pression Humidité
    00:00 +12°C° 0 mm 2 m/s 750 mmHg 81%
    01:00 +10°C° 0 mm 2 m/s 750 mmHg 80%
    02:00 +11°C° 0 mm 1 m/s 750 mmHg 80%
    03:00 +11°C° 0 mm 1 m/s 750 mmHg 79%
    04:00 +11°C° 0 mm 1 m/s 750 mmHg 81%
    05:00 +11°C° 0 mm 1 m/s 750 mmHg 83%
    06:00 +10°C° 0 mm 1 m/s 750 mmHg 84%
    07:00 +12°C° 0 mm 1 m/s 750 mmHg 81%
    08:00 +14°C° 0 mm 2 m/s 749 mmHg 78%
    09:00 +16°C° 0 mm 2 m/s 749 mmHg 76%
    10:00 +18°C° 0 mm 2 m/s 749 mmHg 71%
    11:00 +19°C° 0 mm 2 m/s 749 mmHg 67%
    12:00 +21°C° 0 mm 2 m/s 749 mmHg 63%
    13:00 +21°C° 0.1 mm 2 m/s 749 mmHg 59%
    14:00 +23°C° 0.1 mm 2 m/s 748 mmHg 56%
    15:00 +24°C° 0.1 mm 3 m/s 748 mmHg 52%
    16:00 +22°C° 0 mm 3 m/s 748 mmHg 56%
    17:00 +22°C° 0 mm 3 m/s 748 mmHg 60%
    18:00 +21°C° 0 mm 2 m/s 747 mmHg 64%
    19:00 +20°C° 0 mm 2 m/s 747 mmHg 69%
    20:00 +18°C° 0 mm 2 m/s 747 mmHg 73%
    21:00 +17°C° 0 mm 2 m/s 747 mmHg 78%
    22:00 +16°C° 0 mm 2 m/s 747 mmHg 78%
    23:00 +16°C° 0 mm 2 m/s 747 mmHg 79%
    Voir plus